Regional Weather Roundup
Issued by NWS Charleston, SC

Current Version | Previous Version | Graphics & Text | Print | Product List | Glossary On
Versions: 1 2 3 4 5 6 7 8 9 10 11 12 13 14 15 16 17 18 19 20 21 22 23 24 25 26 27 28 29 30 31 32 33 34 35 36 37 38 39 40 41 42 43 44 45 46 47 48 49 50
000 ASUS42 KCHS 171127 RWRCHS REGIONAL WEATHER ROUNDUP NATIONAL WEATHER SERVICE CHARLESTON SC 600 AM EST TUE JAN 17 2017 NOTE: "FAIR" INDICATES FEW OR NO CLOUDS BELOW 12,000 FEET WITH NO SIGNIFICANT WEATHER AND/OR OBSTRUCTIONS TO VISIBILITY. NOT ALL STATIONS ARE QUALITY CONTROLLED. USE DATA WITH CAUTION... ESPECIALLY DEWPOINT OBSERVATIONS. SCZ027-030-031-034>040-042>050-171200- ...SOUTHEAST SOUTH CAROLINA... CITY SKY/WX TMP DP RH WIND PRES REMARKS N CHARLESTON FOG 55 53 93 N5 30.25S VSB 1/2 WATERFRONT PRK N/A 55 55 100 VRB2 30.24S MOUNT PLEASANT FOG 54 54 100 CALM 30.26R VSB 1/2 JOHNS ISLAND CLOUDY 55 55 100 CALM 30.26R FOG PINOPOLIS NOT AVBL MONCKS CORNER FOG 52 52 100 CALM 30.26R VSB 1/4 SUMMERVILLE FOG N/A N/A N/A CALM 30.27R VSB 1/2 BEAUFORT MCAS FOG 57 56 96 CALM 30.26R VSB 1/4 BEAUFORT ARPT CLOUDY 55 55 100 CALM 30.26R FOG HILTON HEAD IS NOT AVBL WALTERBORO FOG 59 N/A N/A CALM 30.27R VSB 1/4 ALLENDALE FOG 59 59 100 CALM 30.25S VSB 1/2 ...SOUTHERN MIDLANDS AND PEE DEE... CITY SKY/WX TMP DP RH WIND PRES REMARKS GEORGETOWN FOG 52 50 93 CALM 30.26S VSB 1/4 KINGSTREE FOG 52 50 93 CALM 30.26R VSB 1/4 ORANGEBURG FOG 56 56 100 CALM 30.25S VSB 3/4 BARNWELL CLOUDY 61 61 100 CALM 30.25S AIKEN FOG 54 54 100 CALM 30.28S VSB 1/2 MANNING FOG 52 52 100 CALM 30.26R VSB 1/4 COLUMBIA FOG 54 52 93 E5 30.24S VSB 1/2 SUMTER FOG 54 52 94 CALM 30.24R VSB 3/4 FLORENCE FOG 52 52 100 CALM 30.26R VSB 1/4 MYRTLE BEACH NOT AVBL N MYRTLE BEACH CLOUDY 49 48 97 CALM 30.24S $$ GAZ063-065-086>088-099>101-113>116-118-119-134>141-150-171200- ...SOUTHEAST GEORGIA... CITY SKY/WX TMP DP RH WIND PRES REMARKS SAVANNAH ARPT FOG 58 56 93 CALM 30.25R VSB 1/4 HUNTER AAF FOG 58 58 100 CALM 30.23R VSB 1/2 FORT STEWART FOG 57 57 99 CALM 30.23R VSB 1/2 STATESBORO FOG 58 32 37 CALM 30.26R VSB 1/4 SYLVANIA FOG N/A N/A N/A CALM 30.26R VSB 3/4 CLAXTON FOG N/A N/A N/A CALM 30.24F VSB 3/4 ...CSRA...CENTRAL AND FAR SOUTHEAST GEORGIA... CITY SKY/WX TMP DP RH WIND PRES REMARKS THOMSON CLOUDY 60 60 99 CALM 30.28S AUGUSTA-BUSH FOG 59 57 93 CALM 30.24 VSB 1/2 AUGUSTA-DANIEL CLOUDY 59 56 89 S5 30.24S FOG SWAINSBORO CLOUDY 59 59 100 CALM 30.25R FOG VIDALIA FOG 59 59 100 S3 30.25R VSB 1/2 EASTMAN FOG 54 54 97 CALM 30.26S VSB 1/4 HAZLEHURST FOG 59 59 100 S5 30.24R VSB 3/4 ALMA FOG 59 59 100 S6 30.23R VSB 1/2 WAYCROSS FOG 60 60 100 W5 30.24R VSB 3/4 JESUP FOG 59 55 88 CALM 30.25S VSB<1/4 BAXLEY FOG 59 59 100 CALM 30.25R VSB 1/2 BRUNSWICK FOG 59 59 100 CALM 30.26R VSB<1/4 SAINT SIMONS FOG 55 55 100 CALM 30.24R VSB 1/2 $$ SCZ027-028-034-036>038-045-046-048>050-GAZ119-141-171200- ...LAKE AND SUPPLEMENTAL COASTAL OBSERVATIONS... STATION/POSITION TIME TEMP WIND PRES WAVE SWELL AIR SEA DIR/SP/G HT/PER HT/PER/DIR (UTC) (F) (DEG/KT/KT) (MB) (FT/S) (FT/S/D) WINYAH BAY 1030 51 320/ 4 1024.0S LAKE MURRAY 1120 53 CALM / 2 1023.7 ACE BASIN NERRS 1045 56 CALM 1024.0S FORT PULASKI 1100 57 55 340/ 2/ 3 1024.6 SAPELO ISLAND 1100 57 CALM 1024.0 $$ ANZ835-935-AMZ111-154-330-350-352-354-370-450-454-472-171200- ...C-MAN AND BUOY OBSERVATIONS... STATION/POSITION TIME TEMP WIND PRES WAVE SWELL AIR SEA DIR/SP/G HT/PER HT/PER/DIR (UTC) (F) (DEG/KT/KT) (MB) (FT/S) (FT/S/D) BUOY 41004 1050 70 70 180/ 4/ 4 1023.7R 3/ 9 3/110/ 9 BUOY 41008 1050 58 59 350/ 6/ 6 1023.7R 2/ 8 2/ 80/ 8 FOLLY BEACH CMAN 1100 55 340/ 3/ 4 1024.7R CAPERS NEARSHORE 1108 53 53 350/ 4/ 4 1024.1R FRIPP NEARSHORE 1108 56 56 10/ 4/ 6 1024.2R STATION/POSITION TIME TEMP WIND PRES WAVE SWELL AIR SEA DIR/SP/G HT/PER HT/PER/DIR (UTC) (F) (DEG/KT/KT) (MB) (FT/S) (FT/S/D) 5E ST. MARYS GA 1100 61 N/A 2/10 FRYING PAN BUOY 1110 71 71 150/ 8/ 10 1023.6 BUOY 41025 1050 56 72 20/ 8/ 10 1024.3F 3/ 8 2/130/ 8 CAPE LOOKOUT NC 1100 49 10/ 3/ 3 1024.0R BUOY 41002 1050 71 72 200/ 12/ 16 1025.2R 3/ 9 3/ 70/ 9 BUOY 41010 NOT AVBL ST AUGUSTINE FL 1100 63 63 CALM / 1 1024.6R $$

USA.gov is the U.S. government's official web portal to all federal, state and local government web resources and services.